Weather History for San Diego, CA

Change the Weather History Date:

Thursday, November 22, 2012

  Actual Average Record
Temperature  
Mean Temperature 60 °F 60 °F  
Max Temperature 65 °F 68 °F 83 °F (1954)
Min Temperature 54 °F 52 °F 40 °F (1931)
Degree Days  
Heating Degree Days 5 5  
Month to date heating degree days 62 75  
Since 1 July heating degree days 66 96  
Cooling Degree Days 0 0  
Month to date cooling degree days 16 11  
Year to date cooling degree days 899 718  
Growing Degree Days 9 (Base 50)    
Moisture  
Dew Point 54 °F    
Average Humidity 80    
Maximum Humidity 93    
Minimum Humidity 67    
Precipitation  
Precipitation 0.00 in 0.04 in 1.53 in (1965)
Month to date precipitation 0.18 0.68  
Year to date precipitation 4.34 8.48  
Since 1 July precipitation 0.88 1.45  
Snow  
Snow 0.00 in - - ()
Month to date snowfall 0.0  
Year to date snowfall 0.0  
Since 1 July snowfall 0.0  
Snow Depth 0.00 in    
Sea Level Pressure  
Sea Level Pressure 30.09 in    
Wind  
Wind Speed 3 mph (NNW)    
Max Wind Speed 9 mph    
Max Gust Speed 13 mph    
Visibility 6 miles    
Events      
T = Trace of Precipitation, MM = Missing Value Source: NWS Daily Summary

Daily Weather History Graph

Daily Weather History Graph

Search for Another Location

Airport:

Trip Planner

Search our weather history database for the weather conditions in past years. The results will help you decide how hot, cold, wet, or windy it might be!

Date:

Astronomy

Nov. 22, 2012 Rise Set
Actual Time 6:25 AM PST 4:44 PM PST
Civil Twilight 5:59 AM PST 5:10 PM PST
Nautical Twilight 5:29 AM PST 5:40 PM PST
Astronomical Twilight 4:59 AM PST 6:10 PM PST
Moon 1:17 PM PST (11/22) 1:06 AM PST (11/22)
Length of Visible Light 11h 11m
Length of Day
10h 18m
Waxing Gibbous, 72% of the Moon is Illuminated
Nov 22
Waxing Gibbous
Nov 28
Full
Dec 6
Last Quarter
Dec 13
New
Dec 19
First Quarter

Hourly Weather History & Observations

Time (PST) Temp. Dew Point Humidity Pressure Visibility Wind Dir Wind Speed Gust Speed Precip Events Conditions
12:31 AM 57.2 °F 51.8 °F 82% 30.07 in 8.0 mi Calm Calm - N/A   Scattered Clouds
12:37 AM 55.4 °F 51.8 °F 88% 30.08 in 8.0 mi Calm Calm - N/A   Mostly Cloudy
12:51 AM 55.9 °F 52.0 °F 87% 30.08 in 8.0 mi Calm Calm - N/A   Mostly Cloudy
1:51 AM 57.9 °F 54.0 °F 87% 30.08 in 7.0 mi Calm Calm - N/A   Overcast
2:37 AM 57.2 °F 53.6 °F 88% 30.07 in 6.0 mi NE 4.6 mph - N/A   Overcast
2:51 AM 57.0 °F 54.0 °F 89% 30.07 in 5.0 mi Calm Calm - N/A   Overcast
3:32 AM 55.4 °F 53.6 °F 94% 30.07 in 2.5 mi ENE 4.6 mph - N/A   Overcast
3:41 AM 55.4 °F 53.6 °F 94% 30.07 in 0.8 mi Calm Calm - N/A   Overcast
3:51 AM 55.9 °F 54.0 °F 93% 30.07 in 0.8 mi Calm Calm - N/A   Overcast
4:26 AM 53.6 °F 53.6 °F 100% 30.07 in 1.0 mi NE 3.5 mph - N/A   Overcast
4:38 AM 53.6 °F 53.6 °F 100% 30.07 in 2.0 mi Calm Calm - N/A   Overcast
4:43 AM 53.6 °F 53.6 °F 100% 30.07 in 4.0 mi Calm Calm - N/A   Overcast
4:51 AM 55.0 °F 53.1 °F 93% 30.07 in 4.0 mi Calm Calm - N/A   Overcast
5:51 AM 55.9 °F 53.1 °F 90% 30.08 in 7.0 mi NE 3.5 mph - N/A   Overcast
6:45 AM 55.4 °F 53.6 °F 94% 30.10 in 3.0 mi NNE 3.5 mph - N/A   Mostly Cloudy
6:51 AM 55.0 °F 53.1 °F 93% 30.10 in 2.0 mi NE 4.6 mph - N/A   Mostly Cloudy
7:25 AM 55.4 °F 53.6 °F 94% 30.11 in 2.5 mi East 4.6 mph - N/A   Scattered Clouds
7:30 AM 55.4 °F 53.6 °F 94% 30.11 in 4.0 mi Calm Calm - N/A   Scattered Clouds
7:51 AM 57.0 °F 53.1 °F 87% 30.12 in 6.0 mi Calm Calm - N/A   Scattered Clouds
8:51 AM 60.1 °F 52.0 °F 75% 30.13 in 6.0 mi Calm Calm - N/A   Haze
9:51 AM 62.1 °F 53.1 °F 72% 30.13 in 7.0 mi Calm Calm - N/A   Partly Cloudy
10:51 AM 64.0 °F 54.0 °F 70% 30.11 in 7.0 mi WNW 6.9 mph - N/A   Partly Cloudy
11:51 AM 64.0 °F 54.0 °F 70% 30.08 in 7.0 mi WNW 5.8 mph - N/A   Partly Cloudy
12:51 PM 64.0 °F 55.0 °F 73% 30.06 in 10.0 mi WSW 6.9 mph - N/A   Partly Cloudy
1:51 PM 64.0 °F 54.0 °F 70% 30.06 in 10.0 mi West 6.9 mph - N/A   Partly Cloudy
2:51 PM 64.0 °F 55.0 °F 73% 30.06 in 10.0 mi WSW 6.9 mph - N/A   Partly Cloudy
3:51 PM 62.1 °F 55.0 °F 78% 30.07 in 10.0 mi WNW 6.9 mph - N/A   Partly Cloudy
4:51 PM 61.0 °F 55.0 °F 81% 30.08 in 10.0 mi NW 4.6 mph - N/A   Partly Cloudy
5:51 PM 60.1 °F 54.0 °F 80% 30.09 in 10.0 mi Calm Calm - N/A   Partly Cloudy
6:51 PM 60.1 °F 55.0 °F 83% 30.10 in 10.0 mi NW 3.5 mph - N/A   Partly Cloudy
7:51 PM 60.1 °F 54.0 °F 80% 30.12 in 9.0 mi Calm Calm - N/A   Clear
8:51 PM 59.0 °F 54.0 °F 83% 30.12 in 8.0 mi Calm Calm - N/A   Clear
9:51 PM 57.9 °F 54.0 °F 87% 30.13 in 8.0 mi Calm Calm - N/A   Clear
10:51 PM 57.0 °F 53.1 °F 87% 30.14 in 8.0 mi Calm Calm - N/A   Clear
11:27 PM 57.2 °F 53.6 °F 88% 30.14 in 7.0 mi Calm Calm - N/A   Partly Cloudy
11:51 PM 57.0 °F 53.1 °F 87% 30.13 in 7.0 mi Calm Calm - N/A   Partly Cloudy